Simultaneous Nadir Overpasses (SNOs) Predictions

Prediction of SNOs between AQUA and NPP Satellite Orbit:

Table of predicted SNOs for the next 14.0 days since TLE Epoch: 6/7/2019
Index Date (AQUA) Time (AQUA) Lat,Lon (AQUA) SZA (AQUA ) Date (NPP) Time (NPP) Lat,Lon (NPP) SZA (NPP ) Distance(km) Time Diff (sec)
1 06/10/2019 05:35:44 -64.81, 137.72 93.41 06/10/2019 05:34:30 -64.99, 136.75 93.23 50.58 74
2 06/10/2019 06:21:41 76.03, -36.32 74.66 06/10/2019 06:21:40 76.04, -36.24 74.64 2.31 1
3 06/10/2019 07:09:29 -80.24, 153.02 111.05 06/10/2019 07:10:43 -80.01, 153.79 111.18 29.36 74
4 06/12/2019 21:48:58 -75.30, -90.22 104.65 06/12/2019 21:48:07 -75.30, -90.14 104.62 2.30 51
5 06/12/2019 22:38:04 76.23, 80.20 74.26 06/12/2019 22:38:31 76.23, 80.21 74.24 0.08 27
6 06/15/2019 14:05:22 -75.51, 26.25 104.99 06/15/2019 14:04:59 -75.50, 26.24 104.97 0.48 23
7 06/15/2019 14:54:28 76.43,-163.27 73.92 06/15/2019 14:55:23 76.42,-163.33 73.90 1.92 55
8 06/18/2019 05:32:35 74.84, -27.29 75.72 06/18/2019 05:31:23 74.85, -27.23 75.76 1.62 72
9 06/18/2019 06:21:46 -75.71, 142.72 105.28 06/18/2019 06:21:51 -75.70, 142.62 105.26 2.86 5
10 06/20/2019 21:48:57 75.14, 89.38 75.37 06/20/2019 21:48:13 75.14, 89.37 75.41 0.27 44




NCC Satellite Simultaneous Nadir Overpasses (SNOs) Prediction Service
